| time (UTC) | temp F | wind direction | speed MPH | gust MPH | rain 1hr in | rain 24hr in | rain mn in | humidity % | barometer mb |
| 20260505064516 | 59 | 0.0 | 1.0 | 0.00 | 0.00 | 0.00 | 69 | 1011.3 | |
| 20260505063516 | 60 | 0.0 | 2.0 | 0.00 | 0.00 | 0.00 | 68 | 1011.3 | |
| 20260505062516 | 60 | 0.0 | 2.0 | 0.00 | 0.00 | 0.00 | 68 | 1011.3 | |
| 20260505061516 | 59 | 0.0 | 2.0 | 0.00 | 0.00 | 0.00 | 67 | 1011.4 | |
| 20260505060515 | 59 | 293 | 1.0 | 2.0 | 0.00 | 0.00 | 0.00 | 67 | 1011.3 |
| 20260505055516 | 59 | 0.0 | 2.0 | 0.00 | 0.00 | 0.00 | 67 | 1011.4 | |
| 20260505054516 | 59 | 0.0 | 2.0 | 0.00 | 0.00 | 0.00 | 66 | 1011.4 | |
| 20260505053516 | 60 | 255 | 0.0 | 0.0 | 0.00 | 0.00 | 0.00 | 65 | 1011.4 |
| 20260505052517 | 60 | 0.0 | 2.0 | 0.00 | 0.00 | 0.00 | 64 | 1011.5 | |
| 20260505051515 | 60 | 0.0 | 2.0 | 0.00 | 0.00 | 0.00 | 63 | 1011.4 | |
| 20260505050516 | 60 | 315 | 1.0 | 3.0 | 0.00 | 0.00 | 0.00 | 63 | 1011.4 |
| 20260505041516 | 62 | 293 | 1.0 | 4.0 | 0.00 | 0.00 | 0.00 | 57 | 1011.3 |
| 20260505040515 | 62 | 293 | 2.0 | 5.0 | 0.00 | 0.00 | 0.00 | 56 | 1011.2 |
| 20260505035516 | 63 | 293 | 1.0 | 4.0 | 0.00 | 0.00 | 0.00 | 55 | 1011.0 |
| 20260505034516 | 63 | 293 | 2.0 | 5.0 | 0.00 | 0.00 | 0.00 | 54 | 1011.0 |
| 20260505033516 | 63 | 293 | 1.0 | 4.0 | 0.00 | 0.00 | 0.00 | 53 | 1011.1 |
| 20260505032516 | 63 | 293 | 1.0 | 9.0 | 0.00 | 0.00 | 0.00 | 53 | 1011.3 |
| 20260505031516 | 63 | 293 | 1.0 | 4.0 | 0.00 | 0.00 | 0.00 | 52 | 1011.3 |
| 20260505030515 | 63 | 293 | 1.0 | 3.0 | 0.00 | 0.00 | 0.00 | 52 | 1011.3 |
| 20260505025515 | 63 | 180 | 1.0 | 4.0 | 0.00 | 0.00 | 0.00 | 51 | 1011.1 |
| 20260505024515 | 63 | 293 | 2.0 | 6.0 | 0.00 | 0.00 | 0.00 | 52 | 1011.1 |
| 20260505023515 | 63 | 293 | 1.0 | 3.0 | 0.00 | 0.00 | 0.00 | 52 | 1011.2 |
| 20260505022516 | 63 | 0.0 | 2.0 | 0.00 | 0.00 | 0.00 | 51 | 1011.3 | |
| 20260505021516 | 64 | 0.0 | 3.0 | 0.00 | 0.00 | 0.00 | 50 | 1011.4 | |
| 20260505020515 | 64 | 293 | 1.0 | 2.0 | 0.00 | 0.00 | 0.00 | 51 | 1011.4 |
| 20260505015515 | 64 | 0.0 | 2.0 | 0.00 | 0.00 | 0.00 | 51 | 1011.4 | |
| 20260505014515 | 64 | 0.0 | 2.0 | 0.00 | 0.00 | 0.00 | 50 | 1011.3 | |
| 20260505013517 | 64 | 0.0 | 5.0 | 0.00 | 0.00 | 0.00 | 50 | 1011.2 | |
| 20260505012515 | 63 | 135 | 1.0 | 3.0 | 0.00 | 0.00 | 0.00 | 51 | 1011.2 |
| 20260505011521 | 63 | 0.0 | 2.0 | 0.00 | 0.00 | 0.00 | 51 | 1011.1 | |
| 20260505010520 | 63 | 0.0 | 1.0 | 0.00 | 0.00 | 0.00 | 52 | 1011.0 | |
| 20260505005515 | 63 | 0.0 | 1.0 | 0.00 | 0.00 | 0.00 | 52 | 1010.9 | |
| 20260505004515 | 64 | 0.0 | 1.0 | 0.00 | 0.00 | 0.00 | 52 | 1010.8 | |
| 20260505003515 | 65 | 0.0 | 1.0 | 0.00 | 0.00 | 0.00 | 50 | 1010.7 | |
| 20260505002515 | 66 | 249 | 0.0 | 0.0 | 0.00 | 0.00 | 0.00 | 48 | 1010.7 |
| 20260505001516 | 66 | 0.0 | 1.0 | 0.00 | 0.00 | 0.00 | 46 | 1010.6 | |
| 20260505000515 | 67 | 0.0 | 1.0 | 0.00 | 0.00 | 0.00 | 44 | 1010.5 | |
| 20260504235517 | 68 | 0.0 | 3.0 | 0.00 | 0.00 | 0.00 | 43 | 1010.4 | |
| 20260504234518 | 69 | 293 | 1.0 | 4.0 | 0.00 | 0.00 | 0.00 | 42 | 1010.4 |
| 20260504233517 | 69 | 270 | 1.0 | 5.0 | 0.00 | 0.00 | 0.00 | 42 | 1010.4 |
| 20260504232517 | 70 | 248 | 2.0 | 5.0 | 0.00 | 0.00 | 0.00 | 41 | 1010.4 |
| 20260504231517 | 71 | 248 | 1.0 | 4.0 | 0.00 | 0.00 | 0.00 | 40 | 1010.4 |
| 20260504230517 | 71 | 248 | 2.0 | 6.0 | 0.00 | 0.00 | 0.00 | 39 | 1010.3 |
| 20260504225517 | 72 | 225 | 1.0 | 6.0 | 0.00 | 0.00 | 0.00 | 38 | 1010.4 |
| 20260504224517 | 72 | 248 | 2.0 | 6.0 | 0.00 | 0.00 | 0.00 | 38 | 1010.5 |
| 20260504223517 | 72 | 248 | 3.0 | 11.0 | 0.00 | 0.00 | 0.00 | 36 | 1010.4 |
| 20260504222518 | 72 | 270 | 4.0 | 11.0 | 0.00 | 0.00 | 0.00 | 37 | 1010.5 |
| 20260504221517 | 73 | 293 | 1.0 | 7.0 | 0.00 | 0.00 | 0.00 | 36 | 1010.5 |
| 20260504220518 | 72 | 248 | 2.0 | 6.0 | 0.00 | 0.00 | 0.00 | 37 | 1010.4 |
| 20260504215517 | 72 | 270 | 4.0 | 11.0 | 0.00 | 0.00 | 0.00 | 37 | 1010.5 |
| 20260504214517 | 72 | 293 | 4.0 | 14.0 | 0.00 | 0.00 | 0.00 | 37 | 1010.6 |
| 20260504213517 | 72 | 248 | 3.0 | 9.0 | 0.00 | 0.00 | 0.00 | 36 | 1010.6 |
| 20260504212519 | 73 | 293 | 2.0 | 6.0 | 0.00 | 0.00 | 0.00 | 37 | 1010.6 |
| 20260504211517 | 73 | 270 | 3.0 | 7.0 | 0.00 | 0.00 | 0.00 | 38 | 1010.6 |
| 20260504210517 | 73 | 293 | 3.0 | 10.0 | 0.00 | 0.00 | 0.00 | 37 | 1010.7 |
| 20260504205517 | 72 | 270 | 2.0 | 4.0 | 0.00 | 0.00 | 0.00 | 39 | 1010.7 |
| 20260504204518 | 72 | 270 | 2.0 | 7.0 | 0.00 | 0.00 | 0.00 | 39 | 1010.7 |
| 20260504203517 | 72 | 248 | 4.0 | 12.0 | 0.00 | 0.00 | 0.00 | 37 | 1010.7 |
| 20260504202517 | 72 | 293 | 3.0 | 12.0 | 0.00 | 0.00 | 0.00 | 38 | 1010.8 |
| 20260504201517 | 72 | 293 | 2.0 | 6.0 | 0.00 | 0.00 | 0.00 | 41 | 1011.0 |
| 20260504200517 | 71 | 270 | 4.0 | 9.0 | 0.00 | 0.00 | 0.00 | 39 | 1011.1 |
| 20260504195517 | 71 | 270 | 3.0 | 9.0 | 0.00 | 0.00 | 0.00 | 39 | 1011.2 |
| 20260504194517 | 72 | 270 | 2.0 | 7.0 | 0.00 | 0.00 | 0.00 | 38 | 1011.2 |
| 20260504193517 | 71 | 315 | 3.0 | 10.0 | 0.00 | 0.00 | 0.00 | 39 | 1011.4 |
| 20260504192517 | 71 | 248 | 3.0 | 8.0 | 0.00 | 0.00 | 0.00 | 39 | 1011.5 |
| 20260504191516 | 70 | 248 | 4.0 | 14.0 | 0.00 | 0.00 | 0.00 | 40 | 1011.5 |
| 20260504190517 | 70 | 270 | 3.0 | 9.0 | 0.00 | 0.00 | 0.00 | 41 | 1011.7 |
| 20260504185517 | 71 | 203 | 3.0 | 6.0 | 0.00 | 0.00 | 0.00 | 38 | 1011.8 |
| 20260504184517 | 70 | 225 | 3.0 | 9.0 | 0.00 | 0.00 | 0.00 | 40 | 1011.8 |
| 20260504183516 | 70 | 248 | 3.0 | 9.0 | 0.00 | 0.00 | 0.00 | 38 | 1012.1 |
| 20260504182517 | 69 | 270 | 2.0 | 6.0 | 0.00 | 0.00 | 0.00 | 40 | 1012.1 |
| 20260504181516 | 69 | 293 | 3.0 | 15.0 | 0.00 | 0.00 | 0.00 | 39 | 1012.3 |
| 20260504180517 | 69 | 270 | 2.0 | 7.0 | 0.00 | 0.00 | 0.00 | 40 | 1012.4 |
| 20260504175517 | 69 | 270 | 2.0 | 9.0 | 0.00 | 0.00 | 0.00 | 39 | 1012.5 |
| 20260504174517 | 69 | 180 | 3.0 | 7.0 | 0.00 | 0.00 | 0.00 | 39 | 1012.8 |
| 20260504173518 | 69 | 248 | 3.0 | 10.0 | 0.00 | 0.00 | 0.00 | 38 | 1012.8 |
| 20260504172517 | 69 | 270 | 4.0 | 11.0 | 0.00 | 0.00 | 0.00 | 41 | 1013.1 |
| 20260504171517 | 69 | 203 | 3.0 | 8.0 | 0.00 | 0.00 | 0.00 | 38 | 1013.2 |
| 20260504170517 | 68 | 248 | 5.0 | 12.0 | 0.00 | 0.00 | 0.00 | 38 | 1013.3 |
| 20260504150517 | 64 | 248 | 3.0 | 9.0 | 0.00 | 0.00 | 0.00 | 48 | 1014.5 |
| 20260504140516 | 60 | 248 | 1.0 | 7.0 | 0.00 | 0.00 | 0.00 | 58 | 1014.7 |
| 20260504130516 | 55 | 293 | 2.0 | 5.0 | 0.00 | 0.00 | 0.00 | 72 | 1015.2 |
| 20260504110516 | 45 | 0.0 | 2.0 | 0.00 | 0.00 | 0.00 | 75 | 1015.5 | |
| 20260504100517 | 45 | 0.0 | 3.0 | 0.00 | 0.00 | 0.00 | 72 | 1015.7 | |
| 20260504081516 | 43 | 156 | 0.0 | 0.0 | 0.00 | 0.00 | 0.00 | 69 | 1015.6 |
| 20260504080516 | 43 | 156 | 0.0 | 0.0 | 0.00 | 0.00 | 0.00 | 69 | 1015.5 |